Regional Weather Roundup
Issued by NWS Newport/Morehead, NC

Current Version | Previous Version | Graphics & Text | Print | Product List | Glossary Off
Versions: 1 2 3 4 5 6 7 8 9 10 11 12 13 14 15 16 17 18 19 20 21 22 23 24 25 26 27 28 29 30 31 32 33 34 35 36 37 38 39 40 41 42 43 44 45 46 47 48 49 50

000
ASUS42 KMHX 231213
RWRMHX
WEATHER ROUNDUP FOR EASTERN NORTH CAROLINA
NATIONAL WEATHER SERVICE NEWPORT/MOREHEAD CITY NC
800 AM EDT SAT JUL 23 2016

NOTE: "FAIR" INDICATES FEW OR NO CLOUDS BELOW 12,000 FEET
WITH NO SIGNIFICANT WEATHER AND/OR OBSTRUCTIONS TO VISIBILITY

NCZ015>017-031-032-045>047-102-103-231300-
NORTH COAST

CITY           SKY/WX    TMP DP  RH WIND       PRES   REMARKS
EDENTON        SUNNY     80  72  76 SW7       30.00R
ELIZABETH CITY SUNNY     79  72  79 SW9       29.99R
KITTY HAWK     SUNNY     81  73  77 SW5       29.99S
MANTEO           N/A     79  75  87 SW10      30.00S

$$

NCZ045>047-081-094-103-104-231300-
CENTRAL COAST

CITY           SKY/WX    TMP DP  RH WIND       PRES   REMARKS
FRISCO         PTSUNNY   83  74  74 SW7       30.02R

$$

NCZ095-097-098-100-101-231300-
SOUTHERN COAST

CITY           SKY/WX    TMP DP  RH WIND       PRES   REMARKS
BEAUFORT       MOSUNNY   83  75  77 W7        30.01S
CEDAR ISLAND   NOT AVBL
JACKSONVILLE   CLOUDY    77  72  84 S6        30.01R
PINEY ISLAND   PTSUNNY  N/A N/A N/A SW5       30.01
WILMINGTON     CLOUDY    76  73  91 SW6       30.02S


$$

NCZ011>013-027>030-043-044-078>080-089-090>093-098-231300-
COASTAL PLAIN

CITY           SKY/WX    TMP DP  RH WIND       PRES   REMARKS
AHOSKIE        SUNNY     76  72  88 CALM      29.99R
CLINTON        SUNNY     76  75  96 S3        30.01R
ELIZABETHTOWN  PTSUNNY   78  74  88 S8        30.01R
GOLDSBORO      SUNNY     77  77 100 SW5       29.98S
GREENVILLE     SUNNY     79  73  83 SW6       30.01R
HAVELOCK       MOSUNNY   79  73  82 S5        30.02S
KENANSVILLE    SUNNY     77  72  83 CALM      30.00S
KINSTON        SUNNY     79  73  83 S7        30.01R
NEW BERN       SUNNY     79  73  82 S7        30.02S
RICHLANDS      PTSUNNY   76  73  91 S6        30.01S
ROCKY MOUNT    SUNNY     77  73  87 SW5       29.99S
WASHINGTON     SUNNY     77  72  83 SW3       30.00S
WHITEVILLE     PTSUNNY   76  73  89 SE3       30.01R

$$

AMZ130-135-150-152-154-156-158-170-250-252-270-ANZ085-086-088-633-658-670-231300-
MARINE OBSERVATIONS

STATION/POSITION TIME  TEMP    WIND        PRES    WAVE   SWELL
                       AIR SEA DIR/SP/G            HT/PER HT/PER
                 (UTC) (F)     (DEG/KT/KT) (MB)    (FT/S) (FT/S)
CHESAPEAKE LIGHT NOT AVBL
64 E VA BEACH    1150   80 80  230/ 16/ 19 1014.6    4/ 4   2/ 8
DUCK             1100   79 62  240/ 13/ 17 1014.6
2 E DUCK         1111      68                N/A     2/ 8
OREGON INLET     1100   81 84  220/ 14/ 17 1015.4
13E OREGON INLT  1200      82                N/A     3/ 8   2/ 8
HATTERAS CG      1100   81 83  230/  6/  9 1015.8
DIAMOND BUOY     1150   83 86  240/ 12/ 12 1016.2    2/ 9   2/ 9
CAPE LOOKOUT     1200   84     220/  6/  8 1016.1
BEAUFORT LAB     1100   82 83  220/  2/  5 1015.6
30 SE NEW RVR IN 1108   84 84  210/  8/ 10 1016.2
30 SE NEW RVR IN 1125      84                N/A     3/ 8
27 SE WRIGHTSVLE 1108   84 84  220/  8/ 10 1016.5
5 SE WRIGHTSVLE  1108   83 83  250/  8/ 10 1017.2
225 S CAPE HAT   1150   82 84  110/  2/  2 1016.9    3/ 9   3/ 9
41 SE CHARLESTON 1150   85 86  250/ 10/ 12 1016.0    3/ 8   2/ 8

$$



USA.gov is the U.S. government's official web portal to all federal, state and local government web resources and services.